When you browse on this site, cookies collect data to enhance your experience and personalize the content and advertising you see.
Visit our Privacy Policy to learn more. By continuing to use the site, you agree to this use of cookies and data.
  • In Latvia
  • List of Countries
  • For 7 days
  • Water Temperature
  • Satellite Maps
  • Weather Map
  • Weather Widgets
  • user-avatar
    Login

    Hourly Weather Chien

    Today, 17 June, Monday

    Time Temperature Precipitation Wind Pressure Humidity
    00:00 +22°C° 0.3 mm 0 mps 742 mmHg 99%
    01:00 +22°C° 0.3 mm 0 mps 741 mmHg 99%
    02:00 +22°C° 0.3 mm 0 mps 741 mmHg 99%
    03:00 +22°C° 0.1 mm 0 mps 741 mmHg 99%
    04:00 +22°C° 0.1 mm 0 mps 741 mmHg 99%
    05:00 +22°C° 0.1 mm 0 mps 741 mmHg 99%
    06:00 +23°C° 0.1 mm 0 mps 742 mmHg 97%
    07:00 +23°C° 0.1 mm 0 mps 742 mmHg 96%
    08:00 +24°C° 0.1 mm 0 mps 743 mmHg 95%
    09:00 +26°C° 0.5 mm 0 mps 743 mmHg 89%
    10:00 +27°C° 0.5 mm 0 mps 742 mmHg 82%
    11:00 +31°C° 0.5 mm 1 mps 741 mmHg 76%
    12:00 +31°C° 0.5 mm 1 mps 741 mmHg 74%
    13:00 +31°C° 0.5 mm 1 mps 741 mmHg 73%
    14:00 +31°C° 0.5 mm 1 mps 740 mmHg 71%
    15:00 +30°C° 0.3 mm 1 mps 740 mmHg 78%
    16:00 +29°C° 0.3 mm 1 mps 740 mmHg 84%
    17:00 +28°C° 0.3 mm 1 mps 740 mmHg 90%
    18:00 +27°C° 0 mm 1 mps 741 mmHg 93%
    19:00 +26°C° 0 mm 1 mps 741 mmHg 96%
    20:00 +25°C° 0 mm 1 mps 742 mmHg 98%
    21:00 +25°C° 0.1 mm 1 mps 742 mmHg 99%
    22:00 +25°C° 0.1 mm 1 mps 742 mmHg 99%
    23:00 +22°C° 0.1 mm 0 mps 743 mmHg 99%

    Tomorrow, 18 June, Tuesday

    Time Temperature Precipitation Wind Pressure Humidity
    00:00 +23°C° 0.1 mm 0 mps 742 mmHg 99%
    01:00 +23°C° 0.1 mm 0 mps 742 mmHg 98%
    02:00 +23°C° 0.1 mm 0 mps 741 mmHg 98%
    03:00 +23°C° 0.1 mm 0 mps 741 mmHg 98%
    04:00 +23°C° 0.1 mm 0 mps 742 mmHg 98%
    05:00 +23°C° 0.1 mm 0 mps 742 mmHg 98%
    06:00 +26°C° 0 mm 1 mps 742 mmHg 94%
    07:00 +26°C° 0 mm 1 mps 742 mmHg 91%
    08:00 +27°C° 0 mm 1 mps 743 mmHg 88%
    09:00 +29°C° 0 mm 1 mps 742 mmHg 79%
    10:00 +31°C° 0 mm 1 mps 742 mmHg 69%
    11:00 +33°C° 0 mm 1 mps 742 mmHg 60%
    12:00 +32°C° 0.4 mm 1 mps 741 mmHg 64%
    13:00 +32°C° 0.4 mm 1 mps 741 mmHg 68%
    14:00 +31°C° 0.4 mm 1 mps 740 mmHg 72%
    15:00 +30°C° 0.9 mm 1 mps 740 mmHg 79%
    16:00 +28°C° 0.9 mm 1 mps 740 mmHg 87%
    17:00 +27°C° 0.9 mm 1 mps 740 mmHg 94%
    18:00 +26°C° 0.4 mm 1 mps 741 mmHg 95%
    19:00 +25°C° 0.4 mm 1 mps 742 mmHg 97%
    20:00 +25°C° 0.4 mm 1 mps 742 mmHg 98%
    21:00 +24°C° 0 mm 1 mps 742 mmHg 98%
    22:00 +24°C° 0 mm 1 mps 742 mmHg 99%
    23:00 +24°C° 0 mm 1 mps 742 mmHg 99%

    Day after tomorrow, 19 June, Wednesday

    Time Temperature Precipitation Wind Pressure Humidity
    00:00 +22°C° 0 mm 0 mps 742 mmHg 99%
    01:00 +22°C° 0 mm 0 mps 742 mmHg 99%
    02:00 +22°C° 0 mm 0 mps 742 mmHg 99%
    03:00 +22°C° 0.2 mm 0 mps 742 mmHg 98%
    04:00 +22°C° 0.2 mm 0 mps 742 mmHg 98%
    05:00 +22°C° 0.2 mm 0 mps 742 mmHg 97%
    06:00 +23°C° 0.2 mm 0 mps 742 mmHg 95%
    07:00 +24°C° 0.2 mm 0 mps 743 mmHg 92%
    08:00 +25°C° 0.2 mm 0 mps 743 mmHg 90%
    09:00 +28°C° 0.1 mm 0 mps 743 mmHg 78%
    10:00 +30°C° 0.1 mm 0 mps 743 mmHg 67%
    11:00 +32°C° 0.1 mm 0 mps 742 mmHg 55%
    12:00 +33°C° 0.5 mm 1 mps 742 mmHg 61%
    13:00 +32°C° 0.5 mm 1 mps 741 mmHg 67%
    14:00 +31°C° 0.5 mm 2 mps 741 mmHg 72%
    15:00 +30°C° 0.7 mm 2 mps 741 mmHg 79%
    16:00 +29°C° 0.7 mm 2 mps 741 mmHg 86%
    17:00 +27°C° 0.7 mm 2 mps 741 mmHg 93%
    18:00 +27°C° 0 mm 1 mps 741 mmHg 95%
    19:00 +26°C° 0 mm 1 mps 742 mmHg 97%
    20:00 +25°C° 0 mm 1 mps 742 mmHg 98%
    21:00 +25°C° 0 mm 1 mps 742 mmHg 99%
    22:00 +25°C° 0 mm 1 mps 742 mmHg 99%
    23:00 +24°C° 0 mm 1 mps 742 mmHg 99%

    20 June, Thursday

    Time Temperature Precipitation Wind Pressure Humidity
    00:00 +24°C° 0 mm 1 mps 742 mmHg 99%
    01:00 +22°C° 0 mm 0 mps 742 mmHg 99%
    02:00 +22°C° 0 mm 0 mps 741 mmHg 99%
    03:00 +22°C° 0.1 mm 0 mps 742 mmHg 99%
    04:00 +22°C° 0.1 mm 0 mps 742 mmHg 99%
    05:00 +22°C° 0.1 mm 0 mps 742 mmHg 98%
    06:00 +25°C° 0.3 mm 1 mps 742 mmHg 97%
    07:00 +25°C° 0.3 mm 1 mps 743 mmHg 96%
    08:00 +26°C° 0.3 mm 1 mps 743 mmHg 95%
    09:00 +28°C° 0.1 mm 1 mps 743 mmHg 84%
    10:00 +30°C° 0.1 mm 1 mps 743 mmHg 73%
    11:00 +32°C° 0.1 mm 1 mps 743 mmHg 62%
    12:00 +32°C° 0.6 mm 1 mps 742 mmHg 66%
    13:00 +31°C° 0.6 mm 2 mps 741 mmHg 71%
    14:00 +31°C° 0.6 mm 2 mps 741 mmHg 75%
    15:00 +30°C° 1 mm 2 mps 741 mmHg 81%
    16:00 +28°C° 1 mm 2 mps 741 mmHg 87%
    17:00 +27°C° 1 mm 2 mps 741 mmHg 94%
    18:00 +26°C° 0 mm 2 mps 742 mmHg 95%
    19:00 +25°C° 0 mm 1 mps 742 mmHg 97%
    20:00 +25°C° 0 mm 1 mps 743 mmHg 98%
    21:00 +24°C° 0 mm 1 mps 743 mmHg 99%
    22:00 +24°C° 0 mm 1 mps 743 mmHg 99%
    23:00 +22°C° 0 mm 0 mps 743 mmHg 99%

    21 June, Friday

    Time Temperature Precipitation Wind Pressure Humidity
    00:00 +22°C° 0 mm 0 mps 743 mmHg 99%
    01:00 +22°C° 0 mm 0 mps 742 mmHg 99%
    02:00 +22°C° 0 mm 0 mps 742 mmHg 99%
    03:00 +22°C° 0.1 mm 0 mps 742 mmHg 98%
    04:00 +22°C° 0.1 mm 0 mps 742 mmHg 98%
    05:00 +24°C° 0.1 mm 1 mps 742 mmHg 98%
    06:00 +25°C° 0.2 mm 1 mps 743 mmHg 97%
    07:00 +25°C° 0.2 mm 1 mps 743 mmHg 96%
    08:00 +26°C° 0.2 mm 1 mps 744 mmHg 95%
    09:00 +28°C° 0.2 mm 1 mps 743 mmHg 86%
    10:00 +30°C° 0.2 mm 1 mps 743 mmHg 77%
    11:00 +31°C° 0.2 mm 1 mps 743 mmHg 68%
    12:00 +31°C° 1.2 mm 1 mps 742 mmHg 70%
    13:00 +31°C° 1.2 mm 1 mps 741 mmHg 72%
    14:00 +31°C° 1.2 mm 1 mps 741 mmHg 74%
    15:00 +30°C° 1.6 mm 1 mps 741 mmHg 79%
    16:00 +29°C° 1.6 mm 1 mps 741 mmHg 85%
    17:00 +27°C° 1.6 mm 2 mps 741 mmHg 90%
    18:00 +27°C° 0.2 mm 1 mps 741 mmHg 92%
    19:00 +26°C° 0.2 mm 1 mps 742 mmHg 95%
    20:00 +25°C° 0.2 mm 1 mps 743 mmHg 97%
    21:00 +25°C° 0 mm 1 mps 743 mmHg 97%
    22:00 +25°C° 0 mm 1 mps 743 mmHg 98%
    23:00 +24°C° 0 mm 1 mps 743 mmHg 98%

    22 June, Saturday

    Time Temperature Precipitation Wind Pressure Humidity
    00:00 +24°C° 0 mm 1 mps 742 mmHg 98%
    01:00 +24°C° 0 mm 1 mps 742 mmHg 98%
    02:00 +22°C° 0 mm 0 mps 741 mmHg 98%
    03:00 +22°C° 0.1 mm 0 mps 742 mmHg 98%
    04:00 +22°C° 0.1 mm 0 mps 742 mmHg 98%
    05:00 +23°C° 0.1 mm 0 mps 742 mmHg 98%
    06:00 +25°C° 0.1 mm 1 mps 742 mmHg 96%
    07:00 +26°C° 0.1 mm 1 mps 743 mmHg 95%
    08:00 +26°C° 0.1 mm 1 mps 743 mmHg 93%
    09:00 +28°C° 0.5 mm 1 mps 743 mmHg 85%
    10:00 +30°C° 0.5 mm 1 mps 742 mmHg 78%
    11:00 +31°C° 0.5 mm 1 mps 742 mmHg 70%
    12:00 +31°C° 0.2 mm 1 mps 741 mmHg 68%
    13:00 +32°C° 0.2 mm 2 mps 741 mmHg 67%
    14:00 +32°C° 0.2 mm 2 mps 740 mmHg 66%
    15:00 +30°C° 0.5 mm 2 mps 740 mmHg 74%
    16:00 +29°C° 0.5 mm 2 mps 740 mmHg 82%
    17:00 +27°C° 0.5 mm 2 mps 740 mmHg 90%
    18:00 +26°C° 0 mm 2 mps 741 mmHg 92%
    19:00 +26°C° 0 mm 2 mps 741 mmHg 94%
    20:00 +25°C° 0 mm 2 mps 742 mmHg 96%
    21:00 +25°C° 0 mm 2 mps 742 mmHg 96%
    22:00 +25°C° 0 mm 2 mps 742 mmHg 95%
    23:00 +25°C° 0 mm 2 mps 742 mmHg 95%
    Show more